Regional Weather Roundup
Issued by NWS Kansas City/Pleasant Hill, MO

Home | Current Version | Previous Version | Graphics & Text | Print | Product List | Glossary Off
Versions: 1 2 3 4 5 6 7 8 9 10 11 12 13 14 15 16 17 18 19 20 21 22 23 24 25 26 27 28 29 30 31 32 33 34 35 36 37 38 39 40 41 42 43 44 45 46 47 48 49 50

000
ASUS43 KEAX 031110
RWREAX

WEATHER ROUNDUP FOR EASTERN KANSAS AND NORTHWEST MISSOURI
NATIONAL WEATHER SERVICE KANSAS CITY/PLEASANT HILL MO
600 AM CDT SUN MAY 03 2015

KSZ040-057-103>105-MOZ028-029-037-043-031200-
...KANSAS CITY METROPOLITAN AREA...

CITY           SKY/WX    TMP DP  RH WIND       PRES   REMARKS
K.C. INTL      CLOUDY    64  53  67 S21       29.85F
K.C. DOWNTOWN  CLOUDY    65  52  62 S12       29.88S
LEES SUMMIT    CLOUDY    62  51  67 S9        29.91S
OLATHE - IXD   CLOUDY    59  53  80 S8        29.91S
OLATHE - OJC   CLOUDY    62  53  72 S12       29.90S
LAWRENCE       LGT RAIN  63  55  75 S13       29.87F

$$

MOZ001>008-011>017-020>025-030>033-038>040-044>046-053-054-031200-
...NORTHERN AND CENTRAL MISSOURI...

CITY           SKY/WX    TMP DP  RH WIND       PRES   REMARKS
ST. JOSEPH     CLOUDY    62  54  74 SE6       29.84F
MOSBY          CLOUDY    61  52  72 SE7       29.87S
WARRENSBURG    CLOUDY    59  50  72 S7        29.93R
WHITEMAN AFB   CLOUDY    56  51  84 S6        29.93R
CLINTON        CLOUDY    63  52  67 S7        29.94R
SEDALIA        CLOUDY    61  50  67 S9        29.95R
WARSAW         NOT AVBL
MARSHALL       MOCLDY    64  54  68 S6        29.94R
CHILLICOTHE      N/A     63  52  67 S9        29.90R
MOBERLY        PTCLDY    61  46  59 S8        29.94R
KIRKSVILLE     MOCLDY    57  51  80 S7        29.92R

$$

MOZ041-047>049-056>058-063>065-088>090-097-031200-
...EASTERN AND SOUTHERN MISSOURI...

CITY           SKY/WX    TMP DP  RH WIND       PRES   REMARKS
ST. LOUIS INTL MOCLDY    64  42  44 S7        29.99F
SPIRIT OF STL  PTCLDY    59  45  59 CALM      29.98S
COLUMBIA       MOCLDY    57  47  69 S9        29.96R
JEFFERSON CITY CLOUDY    60  46  59 E5        29.96S
MEXICO         CLOUDY    59  50  72 S9        29.95S
HANNIBAL       MOCLDY    57  45  62 S8        29.95S
ROLLA          CLOUDY    60  45  57 S12       29.98S
LEBANON        CLOUDY    57  48  72 S5        30.00R
OSAGE BEACH    CLOUDY    57  45  62 S6        29.97S
SPRINGFIELD    MOCLDY    57  49  74 SE12      29.97S
BRANSON        PTCLDY    57  48  72 CALM      30.01R
NEVADA         MOCLDY    57  52  82 S9        29.94S
JOPLIN         CLEAR     60  51  72 S12       29.95S
WEST PLAINS    MOCLDY    58  41  53 S6        30.03S

$$

IAZ060-094-KSZ022-034>040-054-083-096-NEZ052-066-093-031200-
...KANSAS...SOUTHEAST NEBRASKA AND IOWA...

CITY           SKY/WX    TMP DP  RH WIND       PRES   REMARKS
TOPEKA         CLOUDY    63  57  81 SE12      29.85F
MANHATTAN      CLOUDY    67  56  67 S13       29.78F
EMPORIA        CLOUDY    61  54  77 S12       29.85F
CHANUTE        MOCLDY    62  53  72 S12       29.90S
WICHITA        CLOUDY    63  55  75 S14       29.83F
OMAHA          MOCLDY    61  56  83 S14       29.74F
LINCOLN        PTCLDY    62  54  74 SE12      29.76F
FALLS CITY     PTCLDY    58  53  84 E8        29.82S
LAMONI         LGT RAIN  60  53  77 S13       29.85F
DES MOINES     CLOUDY    61  56  83 S12       29.76F

$$



USA.gov is the U.S. government's official web portal to all federal, state and local government web resources and services.